Location: Cormont
(50.5693°N, 1.7416°E)
Time: 05:57:53
(UTC+00:00)

STARLINK-52 - Pass Details

Date: 21 October 2019
Orbit: 443 x 445 km, 53.0° (Epoch: 14 November)

Event Time Altitude Azimuth Distance (km) Brightness Sun altitude
Rises 18:35:51 0° 290° (WNW) 2,441 8.4 -17.5°
Reaches altitude 10° 18:38:03 10° 283° (WNW) 1,568 7.2 -17.9°
Maximum altitude 18:41:22 40° 212° (SSW) 663 4.2 -18.4°
Enters shadow 18:42:36 29° 165° (SSE) 844 4.4 -18.6°
